Flag for Canada Weather past 2 weeks in Québec, Quebec, Canada

Now
14 °F

Light snow. Overcast.


Feels Like: 8 °F
Forecast: 9 / 24 °F
Wind: 3 mph from North

Location: Quebec Weather Station

Current Time: Dec 21, 2014 at 8:37:44 AM

Latest Report: Dec 21, 2014 at 8:00 AM


Visibility: 15 mi

Pressure: 30.40 "Hg

Humidity: 79%

Dew point: 9 °F

Location of QuébecLocation

Historic Weather in Québec — Graph

°F

Québec temperature yesterday

Maximum temperature yesterday: 19 °F (at 4:00 PM)
Minimum temperature yesterday: 1 °F (at 5:00 AM)
Average temperature yesterday: 10 °F

Past Weeks' High & Low Weather Summary

 TemperatureHumidityPressure
High36 °F (Dec 11, 1:00 PM)100% (Dec 12, 1:00 AM)30.85 "Hg (Dec 12, 1:00 AM)
Low-6 °F (Dec 8, 6:00 AM)39% (Dec 7, 11:00 AM)29.60 "Hg (Dec 11, 5:00 AM)
Average24 °F83%30.08 "Hg
* Reported Dec 6 7:00 AM — Dec 21 7:00 AM, Québec, Weather by CustomWeather, © 2014

Note: Actual official high and low records may vary slightly from our data, if they occured in-between our weather recording intervals... More about our weather records

Advertising

Québec weather history for previous 24 hours

 ConditionsComfort  
Time TempWeatherWind HumidityBarometerVisibility
7:00 AM
Dec 21
14 °FLight snow. Overcast.6 mph79%30.39 "Hg15 mi
6:00 AM14 °FLight snow. Overcast.6 mph79%30.38 "Hg15 mi
5:00 AM16 °FLight snow. Overcast.3 mph79%30.38 "Hg15 mi
4:00 AM16 °FLight snow. Overcast.3 mph79%30.38 "Hg15 mi
3:00 AM16 °FLight snow. Overcast.3 mph79%30.39 "Hg15 mi
2:00 AM16 °FLight snow. Overcast.6 mph79%30.40 "Hg15 mi
1:00 AM18 °FLight snow. Overcast.3 mph79%30.39 "Hg15 mi
12:00 AM18 °FLight snow. Overcast.3 mph79%30.40 "Hg15 mi
11:00 PM
Dec 20
18 °FLight snow. Overcast.6 mph79%30.39 "Hg15 mi
10:00 PM19 °FLight snow. Overcast.8 mph79%30.38 "Hg15 mi
9:00 PM19 °FLight snow. Overcast.7 mph79%30.38 "Hg15 mi
8:00 PM19 °FLight snow. Overcast.8 mph79%30.38 "Hg15 mi
7:00 PM19 °FLight snow. Overcast.6 mph86%30.39 "Hg15 mi
6:00 PM18 °FLight snow. Overcast.3 mph86%30.38 "Hg12 mi
5:00 PM18 °FLight snow. Passing clouds.6 mph86%30.37 "Hg8 mi
4:00 PM19 °FPassing clouds.7 mph73%30.37 "Hg10 mi
3:00 PM18 °FPartly sunny.3 mph86%30.36 "Hg10 mi
2:00 PM16 °FPartly sunny.2 mph86%30.36 "Hg8 mi
1:00 PM16 °FLight snow. Ice fog.No wind86%30.37 "Hg5 mi
12:01 PM14 °FIce fog.No wind85%30.38 "Hg5 mi
11:00 AM12 °FSnow flurries. Ice fog.2 mph85%30.40 "Hg4 mi
10:00 AM9 °FSnow flurries. Ice fog.No wind85%30.41 "Hg3 mi
9:00 AM3 °FSnow flurries. Ice fog.2 mph85%30.40 "Hg1 mi
8:00 AM1 °FIce fog.No wind78%30.38 "Hg1 mi
Weather by CustomWeather, © 2014

See weather overviewHow to use our weather pages